M I D A S
Marine Information and Data Acquisition System
Tripno 765 of the Zeeleeuw from 2004-08-23 06:31:38 to 2004-08-23 10:44:42
Back to CruiseResearch ActivitiesStationsMapUnderway DataData graphs

EquipmentUnitsComments
TimeDGPSUTC
LatitudeDGPSDM.mWGS84
LongitudeDGPSDM.mWGS84
SpeedMeteo Stationm/sRelative wind speed
DirectionMeteo StationdegRelative wind direction
TemperatureMeteo Stationdeg CelciusAir temperature
PressureMeteo StationPaAtmospheric pressure
HumidityMeteo Station%Relative humidity
Missing or incorrect values are displayed as -999
Metereological data collected by the RV Zeeleeuw from 2004-08-23 06:31:38 to 2004-08-23 10:44:42
                                                                                    Next 1000 lines
Time Latitude Longitude Speed Direction Temperature Pressure Humidity
2004-08-23 06:31:49 51°13.594 2°56.115 4 355 14.3 101390 87
2004-08-23 06:31:53 51°13.594 2°56.115 3.6 18 14.3 101390 87
2004-08-23 06:31:59 51°13.594 2°56.115 3.5 18 14.3 101390 87
2004-08-23 06:32:04 51°13.594 2°56.115 3.8 27 14.3 101390 87
2004-08-23 06:32:09 51°13.593 2°56.115 3.7 17 14.3 101390 87
2004-08-23 06:32:13 51°13.593 2°56.115 3.1 32 14.3 101390 87
2004-08-23 06:32:17 51°13.593 2°56.115 3.2 30 14.3 101390 86
2004-08-23 06:32:22 51°13.593 2°56.115 2.1 36 14.3 101390 86
2004-08-23 06:32:31 51°13.593 2°56.112 3.6 16 14.3 101390 86
2004-08-23 06:32:33 51°13.593 2°56.112 4 34 14.3 101390 86
2004-08-23 06:32:41 51°13.594 2°56.107 3.7 32 14.3 101390 86
2004-08-23 06:32:45 51°13.595 2°56.104 3.6 32 14.3 101390 86
2004-08-23 06:32:57 51°13.597 2°56.094 3.1 21 14.3 101390 86
2004-08-23 06:33:02 51°13.599 2°56.088 2.9 29 14.3 101390 86
2004-08-23 06:33:07 51°13.6 2°56.083 3.1 27 14.3 101400 86
2004-08-23 06:33:14 51°13.603 2°56.074 3.6 27 14.3 101400 86
2004-08-23 06:33:17 51°13.604 2°56.07 3.6 34 14.3 101390 86
2004-08-23 06:33:22 51°13.606 2°56.063 3.5 20 14.3 101390 86
2004-08-23 06:33:26 51°13.607 2°56.057 3.5 24 14.3 101390 86
2004-08-23 06:33:33 51°13.61 2°56.047 2.7 30 14.3 101390 86
2004-08-23 06:33:37 51°13.611 2°56.041 2.8 29 14.2 101400 86
2004-08-23 06:33:42 51°13.613 2°56.033 2.6 56 14.2 101400 86
2004-08-23 06:33:47 51°13.615 2°56.025 2 57 14.3 101390 87
2004-08-23 06:33:52 51°13.617 2°56.016 2 55 14.3 101390 87
2004-08-23 06:33:57 51°13.62 2°56.008 2 52 14.3 101390 87
2004-08-23 06:34:02 51°13.622 2°55.999 2.7 57 14.3 101390 87
2004-08-23 06:34:07 51°13.625 2°55.99 2 59 14.3 101400 87
2004-08-23 06:34:13 51°13.628 2°55.979 1.5 29 14.3 101400 87
2004-08-23 06:34:17 51°13.63 2°55.972 1.3 48 14.3 101400 87
2004-08-23 06:34:21 51°13.632 2°55.964 1.4 57 14.3 101400 87
2004-08-23 06:34:26 51°13.635 2°55.955 1.6 49 14.3 101400 87
2004-08-23 06:34:30 51°13.637 2°55.948 1.5 38 14.3 101400 87
2004-08-23 06:34:37 51°13.641 2°55.935 1.5 20 14.3 101400 87
2004-08-23 06:34:42 51°13.644 2°55.926 1.6 38 14.3 101400 87
2004-08-23 06:34:47 51°13.646 2°55.917 2.2 54 14.3 101400 87
2004-08-23 06:34:52 51°13.649 2°55.908 2.2 81 14.3 101400 87
2004-08-23 06:34:57 51°13.651 2°55.899 1.9 72 14.3 101400 87
2004-08-23 06:35:02 51°13.654 2°55.89 1.8 79 14.3 101400 87
2004-08-23 06:35:07 51°13.656 2°55.881 1.4 64 14.3 101400 87
2004-08-23 06:35:12 51°13.658 2°55.872 1.3 31 14.3 101400 87
2004-08-23 06:35:17 51°13.66 2°55.864 1 60 14.3 101400 86
2004-08-23 06:35:22 51°13.662 2°55.855 1.7 70 14.3 101400 86
2004-08-23 06:35:27 51°13.663 2°55.846 1.5 77 14.3 101400 86
2004-08-23 06:35:32 51°13.664 2°55.838 1.5 74 14.3 101400 86
2004-08-23 06:35:38 51°13.666 2°55.828 1.9 56 14.3 101390 86
2004-08-23 06:35:42 51°13.666 2°55.821 2 57 14.3 101390 86
2004-08-23 06:35:47 51°13.667 2°55.813 2.3 82 14.3 101400 86
2004-08-23 06:35:52 51°13.668 2°55.805 2.6 74 14.3 101400 86
2004-08-23 06:35:57 51°13.669 2°55.797 2.3 91 14.2 101400 86
2004-08-23 06:36:02 51°13.669 2°55.789 2.7 67 14.2 101400 86
2004-08-23 06:36:07 51°13.669 2°55.783 2 75 14.3 101400 86
2004-08-23 06:36:12 51°13.669 2°55.777 2.4 82 14.3 101400 86
2004-08-23 06:36:17 51°13.67 2°55.773 3.9 88 14.3 101400 87
2004-08-23 06:36:22 51°13.67 2°55.77 4.3 103 14.3 101400 87
2004-08-23 06:36:27 51°13.67 2°55.767 3.9 86 14.3 101400 87
2004-08-23 06:36:30 51°13.67 2°55.767 2.8 62 14.3 101400 87
2004-08-23 06:36:37 51°13.671 2°55.766 4.2 91 14.3 101390 87
2004-08-23 06:36:42 51°13.672 2°55.767 3.9 66 14.3 101390 87
2004-08-23 06:36:46 51°13.673 2°55.768 3.4 89 14.3 101390 87
2004-08-23 06:36:49 51°13.674 2°55.769 5 108 14.3 101390 87
2004-08-23 06:36:56 51°13.678 2°55.772 4.7 103 14.3 101400 87
2004-08-23 06:37:01 51°13.681 2°55.774 3.7 131 14.3 101400 87
2004-08-23 06:37:06 51°13.685 2°55.775 3.3 101 14.2 101390 86
2004-08-23 06:37:18 51°13.697 2°55.776 2.8 112 14.3 101390 86
2004-08-23 06:37:24 51°13.704 2°55.774 2.2 135 14.3 101390 86
2004-08-23 06:37:29 51°13.71 2°55.771 2.7 226 14.3 101390 86
2004-08-23 06:37:33 51°13.714 2°55.767 2.5 160 14.3 101390 86
2004-08-23 06:37:39 51°13.721 2°55.761 3 160 14.3 101400 87
2004-08-23 06:37:44 51°13.725 2°55.753 2 198 14.3 101400 87
2004-08-23 06:37:49 51°13.73 2°55.746 1.9 211 14.3 101390 87
2004-08-23 06:37:53 51°13.733 2°55.739 1.9 325 14.3 101390 87
2004-08-23 06:37:59 51°13.739 2°55.727 1.9 271 14.3 101390 87
2004-08-23 06:38:01 51°13.742 2°55.723 0.9 303 14.3 101390 87
2004-08-23 06:38:09 51°13.751 2°55.706 0.9 303 14.3 101400 87
2004-08-23 06:38:14 51°13.758 2°55.695 1.3 336 14.3 101400 87
2004-08-23 06:38:18 51°13.763 2°55.686 0.7 350 14.3 101390 87
2004-08-23 06:38:23 51°13.771 2°55.675 1 15 14.3 101390 87
2004-08-23 06:38:28 51°13.779 2°55.664 1.2 98 14.3 101400 87
2004-08-23 06:38:34 51°13.79 2°55.652 1 107 14.3 101400 87
2004-08-23 06:38:43 51°13.807 2°55.635 2 88 14.3 101390 87
2004-08-23 06:38:48 51°13.818 2°55.627 2.2 88 14.3 101400 87
2004-08-23 06:38:53 51°13.828 2°55.62 2.6 97 14.3 101400 87
2004-08-23 06:38:57 51°13.837 2°55.613 2.9 90 14.3 101390 87
2004-08-23 06:39:01 51°13.846 2°55.607 2.5 70 14.3 101390 87
2004-08-23 06:39:05 51°13.855 2°55.601 2.6 44 14.3 101390 87
2004-08-23 06:39:16 51°13.88 2°55.585 3 96 14.3 101390 87
2004-08-23 06:39:21 51°13.891 2°55.577 1.5 117 14.3 101390 87
2004-08-23 06:39:27 51°13.905 2°55.568 2 65 14.3 101390 87
2004-08-23 06:39:31 51°13.914 2°55.561 2.4 46 14.3 101390 87
2004-08-23 06:39:37 51°13.928 2°55.552 2.5 66 14.3 101390 87
2004-08-23 06:39:42 51°13.94 2°55.544 3.2 60 14.3 101390 87
2004-08-23 06:39:47 51°13.951 2°55.536 2.4 75 14.3 101390 87
2004-08-23 06:39:52 51°13.963 2°55.528 2.7 75 14.3 101390 87
2004-08-23 06:39:57 51°13.975 2°55.52 3.2 101 14.3 101390 87
2004-08-23 06:40:02 51°13.987 2°55.511 2.3 109 14.3 101390 87
2004-08-23 06:40:07 51°13.999 2°55.503 1.9 106 14.3 101390 87
2004-08-23 06:40:09 51°14.003 2°55.5 1.9 83 14.3 101390 87
2004-08-23 06:40:17 51°14.022 2°55.486 1.8 75 14.3 101390 86
2004-08-23 06:40:21 51°14.032 2°55.48 2 79 14.3 101390 86
2004-08-23 06:40:26 51°14.043 2°55.471 1.4 80 14.3 101390 86
2004-08-23 06:40:32 51°14.057 2°55.461 1.6 104 14.3 101390 86
2004-08-23 06:40:37 51°14.069 2°55.454 1.2 111 14.3 101390 86
2004-08-23 06:40:42 51°14.081 2°55.445 1.5 121 14.3 101390 86
2004-08-23 06:40:47 51°14.093 2°55.437 1.3 132 14.3 101390 86
2004-08-23 06:40:58 51°14.118 2°55.418 1.8 125 14.3 101390 87
2004-08-23 06:41:03 51°14.13 2°55.409 1.7 139 14.3 101390 87
2004-08-23 06:41:09 51°14.144 2°55.397 1.5 116 14.3 101390 87
2004-08-23 06:41:13 51°14.153 2°55.389 1.4 104 14.3 101390 87
2004-08-23 06:41:17 51°14.162 2°55.382 1.1 103 14.3 101390 87
2004-08-23 06:41:24 51°14.178 2°55.367 1.1 71 14.3 101390 87
2004-08-23 06:41:36 51°14.205 2°55.337 0.5 92 14.3 101390 87
2004-08-23 06:41:41 51°14.216 2°55.323 0.3 87 14.3 101390 87
2004-08-23 06:41:46 51°14.227 2°55.308 0.3 81 14.3 101390 87
2004-08-23 06:41:58 51°14.254 2°55.268 0.4 31 14.4 101390 87
2004-08-23 06:42:03 51°14.264 2°55.249 0.6 356 14.4 101390 87
2004-08-23 06:42:09 51°14.277 2°55.227 0.9 352 14.4 101390 87
2004-08-23 06:42:13 51°14.285 2°55.211 1.3 3 14.4 101390 87
2004-08-23 06:42:17 51°14.294 2°55.196 1.5 3 14.4 101390 87
2004-08-23 06:42:22 51°14.305 2°55.176 1.5 12 14.4 101390 87
2004-08-23 06:42:29 51°14.32 2°55.147 1.4 16 14.4 101390 87
2004-08-23 06:42:33 51°14.329 2°55.13 1.3 20 14.4 101390 87
2004-08-23 06:42:37 51°14.337 2°55.113 1.3 18 14.4 101390 87
2004-08-23 06:42:44 51°14.353 2°55.083 2 7 14.4 101390 87
2004-08-23 06:42:49 51°14.364 2°55.062 2 360 14.4 101390 87
2004-08-23 06:42:54 51°14.376 2°55.041 1.7 7 14.4 101390 87
2004-08-23 06:42:58 51°14.386 2°55.024 2.1 12 14.3 101390 87
2004-08-23 06:43:01 51°14.393 2°55.012 1.6 41 14.3 101390 87
2004-08-23 06:43:09 51°14.413 2°54.979 1.8 30 14.4 101390 86
2004-08-23 06:43:13 51°14.421 2°54.961 2.4 341 14.4 101390 86
2004-08-23 06:43:18 51°14.431 2°54.937 2.4 334 14.4 101390 87
2004-08-23 06:43:24 51°14.44 2°54.907 2.9 328 14.4 101390 87
2004-08-23 06:43:29 51°14.447 2°54.881 3.2 322 14.3 101390 87
2004-08-23 06:43:34 51°14.451 2°54.855 4.4 328 14.3 101390 87
2004-08-23 06:43:39 51°14.455 2°54.828 4.3 325 14.4 101390 87
2004-08-23 06:43:44 51°14.457 2°54.8 5.2 307 14.4 101390 87
2004-08-23 06:43:46 51°14.458 2°54.789 5.5 292 14.4 101390 87
2004-08-23 06:43:55 51°14.461 2°54.74 5.4 303 14.4 101390 87
2004-08-23 06:43:57 51°14.462 2°54.729 5.2 303 14.4 101390 87
2004-08-23 06:44:05 51°14.465 2°54.685 5.3 311 14.4 101390 87
2004-08-23 06:44:09 51°14.465 2°54.663 6 299 14.4 101380 87
2004-08-23 06:44:13 51°14.466 2°54.641 5 301 14.4 101380 87
2004-08-23 06:44:17 51°14.466 2°54.619 5.3 301 14.4 101380 87
2004-08-23 06:44:25 51°14.464 2°54.574 6.5 305 14.4 101380 87
2004-08-23 06:44:30 51°14.462 2°54.547 5.9 307 14.3 101380 86
2004-08-23 06:44:33 51°14.46 2°54.53 6.1 295 14.3 101380 86
2004-08-23 06:44:40 51°14.456 2°54.492 5.1 314 14.4 101380 86
2004-08-23 06:44:45 51°14.451 2°54.464 5.4 314 14.4 101380 86
2004-08-23 06:44:48 51°14.449 2°54.448 7.1 317 14.4 101380 86
2004-08-23 06:44:54 51°14.443 2°54.415 6.7 42 14.4 101380 86
2004-08-23 06:44:58 51°14.44 2°54.393 7.9 228 14.4 101380 87
2004-08-23 06:45:05 51°14.433 2°54.354 7.5 312 14.4 101380 87
2004-08-23 06:45:16 51°14.423 2°54.294 5.5 311 14.3 101370 86
2004-08-23 06:45:21 51°14.418 2°54.267 5.5 323 14.3 101370 86
2004-08-23 06:45:25 51°14.414 2°54.245 7.5 320 14.3 101380 86
2004-08-23 06:45:30 51°14.408 2°54.218 7 40 14.3 101380 86
2004-08-23 06:45:34 51°14.403 2°54.197 7.2 300 14.3 101380 86
2004-08-23 06:45:41 51°14.393 2°54.16 7.2 313 14.3 101380 86
2004-08-23 06:45:45 51°14.387 2°54.139 8.2 305 14.3 101370 86
2004-08-23 06:45:50 51°14.38 2°54.112 6.9 308 14.3 101370 86
2004-08-23 06:45:54 51°14.374 2°54.091 6.5 316 14.3 101360 86
2004-08-23 06:46:01 51°14.364 2°54.055 8.5 44 14.3 101360 86
2004-08-23 06:46:05 51°14.357 2°54.035 8.4 314 14.3 101370 86
2004-08-23 06:46:10 51°14.35 2°54.009 9.1 311 14.3 101370 86
2004-08-23 06:46:14 51°14.343 2°53.989 8.5 304 14.3 101360 86
2004-08-23 06:46:21 51°14.331 2°53.954 9.4 326 14.3 101360 86
2004-08-23 06:46:25 51°14.324 2°53.934 11.4 228 14.3 101370 86
2004-08-23 06:46:30 51°14.315 2°53.908 10.2 310 14.3 101370 86
2004-08-23 06:46:34 51°14.309 2°53.888 9 304 14.3 101370 86
2004-08-23 06:46:41 51°14.296 2°53.853 8.6 304 14.3 101370 86
2004-08-23 06:46:45 51°14.29 2°53.833 8.6 308 14.3 101360 86
2004-08-23 06:46:50 51°14.281 2°53.808 7.9 313 14.3 101360 86
2004-08-23 06:46:56 51°14.271 2°53.778 8.1 307 14.3 101350 86
2004-08-23 06:47:01 51°14.263 2°53.753 8.7 229 14.3 101350 86
2004-08-23 06:47:05 51°14.256 2°53.733 8.7 308 14.3 101370 86
2004-08-23 06:47:11 51°14.246 2°53.702 9.2 313 14.3 101370 86
2004-08-23 06:47:13 51°14.242 2°53.692 8.4 307 14.4 101360 86
2004-08-23 06:47:22 51°14.227 2°53.646 8.1 306 14.4 101360 86
2004-08-23 06:47:28 51°14.217 2°53.616 7.5 305 14.3 101360 86
2004-08-23 06:47:33 51°14.208 2°53.591 7.3 312 14.3 101360 86
2004-08-23 06:47:38 51°14.2 2°53.565 7.8 314 14.3 101360 86
2004-08-23 06:47:43 51°14.191 2°53.54 6.7 315 14.3 101360 86
2004-08-23 06:47:47 51°14.184 2°53.519 7.4 313 14.3 101360 86
2004-08-23 06:47:53 51°14.174 2°53.489 8 227 14.3 101360 86
2004-08-23 06:47:58 51°14.165 2°53.463 8.1 304 14.4 101360 86
2004-08-23 06:48:02 51°14.158 2°53.443 8.7 308 14.4 101360 86
2004-08-23 06:48:08 51°14.147 2°53.413 8.1 315 14.3 101360 86
2004-08-23 06:48:13 51°14.138 2°53.388 8.7 311 14.3 101360 86
2004-08-23 06:48:18 51°14.128 2°53.363 8.3 312 14.4 101370 86
2004-08-23 06:48:23 51°14.12 2°53.339 9 313 14.4 101370 86
2004-08-23 06:48:27 51°14.112 2°53.319 7.7 301 14.3 101360 86
2004-08-23 06:48:33 51°14.101 2°53.289 7.1 313 14.3 101360 86
2004-08-23 06:48:37 51°14.094 2°53.269 8.1 228 14.3 101360 86
2004-08-23 06:48:41 51°14.086 2°53.249 6.9 305 14.3 101360 86
2004-08-23 06:48:45 51°14.079 2°53.229 7.1 44 14.3 101360 86
2004-08-23 06:48:53 51°14.065 2°53.189 8.2 308 14.3 101360 86
2004-08-23 06:48:58 51°14.056 2°53.164 6.7 317 14.3 101360 86
2004-08-23 06:49:02 51°14.049 2°53.144 7.8 228 14.3 101360 86
2004-08-23 06:49:06 51°14.042 2°53.124 7.5 227 14.3 101360 86
2004-08-23 06:49:13 51°14.029 2°53.088 8.3 314 14.3 101360 86
2004-08-23 06:49:18 51°14.02 2°53.064 8.7 314 14.3 101360 86
2004-08-23 06:49:23 51°14.011 2°53.038 8.1 305 14.3 101360 86
2004-08-23 06:49:28 51°14.002 2°53.014 7.7 308 14.4 101360 86
2004-08-23 06:49:33 51°13.993 2°52.989 8.3 300 14.4 101360 86
2004-08-23 06:49:37 51°13.986 2°52.969 7.5 302 14.4 101360 87
2004-08-23 06:49:41 51°13.979 2°52.948 9.4 313 14.4 101360 87
2004-08-23 06:49:45 51°13.972 2°52.928 7.9 229 14.3 101360 86
2004-08-23 06:49:56 51°13.952 2°52.873 9.8 305 14.3 101360 86
2004-08-23 06:50:01 51°13.944 2°52.848 8.5 299 14.3 101360 86
2004-08-23 06:50:05 51°13.936 2°52.828 9.8 303 14.3 101370 86
2004-08-23 06:50:13 51°13.922 2°52.788 9.4 302 14.3 101360 86
2004-08-23 06:50:21 51°13.908 2°52.748 9.5 299 14.3 101360 86
2004-08-23 06:50:26 51°13.899 2°52.723 8.5 306 14.3 101360 86
2004-08-23 06:50:29 51°13.894 2°52.708 7.8 298 14.3 101360 86
2004-08-23 06:50:36 51°13.881 2°52.672 8.4 303 14.3 101360 86
2004-08-23 06:50:41 51°13.872 2°52.648 6.8 299 14.3 101360 86
2004-08-23 06:50:46 51°13.864 2°52.622 8.2 298 14.3 101360 86
2004-08-23 06:50:50 51°13.856 2°52.603 7.2 304 14.3 101360 86
2004-08-23 06:50:54 51°13.85 2°52.582 7.4 308 14.3 101350 87
2004-08-23 06:51:01 51°13.837 2°52.548 7.4 316 14.3 101350 87
2004-08-23 06:51:05 51°13.83 2°52.527 7.1 308 14.3 101360 87
2004-08-23 06:51:10 51°13.821 2°52.503 7.5 310 14.3 101360 87
2004-08-23 06:51:14 51°13.814 2°52.483 5.5 316 14.3 101360 87
2004-08-23 06:51:21 51°13.801 2°52.448 7.2 315 14.3 101360 87
2004-08-23 06:51:25 51°13.794 2°52.428 8.2 312 14.3 101360 86
2004-08-23 06:51:30 51°13.785 2°52.403 7 304 14.3 101360 86
2004-08-23 06:51:34 51°13.778 2°52.383 6.7 312 14.3 101370 86
2004-08-23 06:51:41 51°13.765 2°52.348 7.5 313 14.3 101370 86
2004-08-23 06:51:45 51°13.758 2°52.328 7.7 313 14.4 101360 87
2004-08-23 06:51:50 51°13.749 2°52.303 8.4 312 14.4 101360 87
2004-08-23 06:51:54 51°13.742 2°52.284 8.6 303 14.4 101360 87
2004-08-23 06:52:01 51°13.729 2°52.249 7.2   14.4 101360 87
2004-08-23 06:52:05 51°13.722 2°52.229 8.3 310 14.4 101360 87
2004-08-23 06:52:10 51°13.713 2°52.205 8.4 313 14.4 101360 87
2004-08-23 06:52:14 51°13.705 2°52.185 7.8 311 14.3 101360 87
2004-08-23 06:52:21 51°13.693 2°52.15 7 303 14.3 101360 87
2004-08-23 06:52:25 51°13.685 2°52.131 6.6 313 14.3 101360 86
2004-08-23 06:52:30 51°13.676 2°52.105 7.5 314 14.3 101360 86
2004-08-23 06:52:34 51°13.669 2°52.086 7.5 312 14.3 101360 86
2004-08-23 06:52:41 51°13.656 2°52.051 8.2 310 14.3 101360 86
2004-08-23 06:52:45 51°13.649 2°52.031 8.3 304 14.3 101360 86
2004-08-23 06:52:50 51°13.64 2°52.006 7.5 302 14.3 101360 86
2004-08-23 06:52:56 51°13.629 2°51.977 7.6 306 14.3 101360 87
2004-08-23 06:53:01 51°13.621 2°51.952 6.4   14.3 101360 87
2004-08-23 06:53:13 51°13.599 2°51.892 8.4 312 14.3 101360 87
2004-08-23 06:53:17 51°13.592 2°51.872 7.7 307 14.3 101370 87
2004-08-23 06:53:21 51°13.584 2°51.853 7.4 305 14.3 101370 87
2004-08-23 06:53:25 51°13.577 2°51.833 8 312 14.4 101370 87
2004-08-23 06:53:30 51°13.568 2°51.808 7.7 308 14.4 101370 87
2004-08-23 06:53:37 51°13.555 2°51.773 8.1 302 14.4 101360 87
2004-08-23 06:53:41 51°13.548 2°51.754 8.1 41 14.4 101360 87
2004-08-23 06:53:45 51°13.54 2°51.734 8.5 41 14.4 101360 87
2004-08-23 06:53:53 51°13.526 2°51.695 6.4 313 14.4 101360 87
2004-08-23 06:53:57 51°13.518 2°51.675 8.3 314 14.4 101360 87
2004-08-23 06:54:02 51°13.509 2°51.651 7.9 311 14.4 101360 87
2004-08-23 06:54:08 51°13.498 2°51.621 7.3 305 14.4 101360 87
2004-08-23 06:54:13 51°13.489 2°51.596 6.9 315 14.4 101360 87
2004-08-23 06:54:18 51°13.479 2°51.572 6.8 315 14.4 101360 87
2004-08-23 06:54:22 51°13.472 2°51.552 6.2 320 14.4 101360 87
2004-08-23 06:54:28 51°13.461 2°51.522 7.3 320 14.4 101360 87
2004-08-23 06:54:33 51°13.452 2°51.497 6.8 43 14.4 101360 87
2004-08-23 06:54:38 51°13.443 2°51.472 6.4 311 14.4 101370 87
2004-08-23 06:54:41 51°13.438 2°51.458 6.3 313 14.4 101370 87
2004-08-23 06:54:49 51°13.424 2°51.418 6.2 310 14.4 101370 87
2004-08-23 06:54:53 51°13.417 2°51.398 5.7 309 14.4 101360 87
2004-08-23 06:55:01 51°13.402 2°51.358 5.7 314 14.4 101360 87
2004-08-23 06:55:05 51°13.395 2°51.338 6.7 313 14.4 101360 87
2004-08-23 06:55:16 51°13.376 2°51.283 6 311 14.4 101370 87
2004-08-23 06:55:22 51°13.365 2°51.253 6.9 229 14.4 101370 87
2004-08-23 06:55:27 51°13.357 2°51.228 7.2 311 14.4 101360 87
2004-08-23 06:55:31 51°13.349 2°51.209 7.2 314 14.4 101360 87
2004-08-23 06:55:37 51°13.339 2°51.179 6.9 311 14.4 101360 87
2004-08-23 06:55:42 51°13.329 2°51.154 5.8 315 14.4 101360 87
2004-08-23 06:55:47 51°13.32 2°51.129 6.4 228 14.4 101360 87
2004-08-23 06:55:52 51°13.311 2°51.105 7.2 315 14.4 101360 87
2004-08-23 06:56:02 51°13.293 2°51.056 5.9 316 14.4 101360 87
2004-08-23 06:56:06 51°13.286 2°51.036 6.9 315 14.4 101360 87
2004-08-23 06:56:13 51°13.274 2°51.001 6.4 317 14.4 101360 87
2004-08-23 06:56:18 51°13.265 2°50.976 7 41 14.4 101360 87
2004-08-23 06:56:22 51°13.258 2°50.957 6.7 228 14.4 101360 87
2004-08-23 06:56:28 51°13.247 2°50.927 6.8 314 14.4 101370 87
2004-08-23 06:56:33 51°13.238 2°50.902 6.5 312 14.4 101370 87
2004-08-23 06:56:38 51°13.229 2°50.877 5.8 311 14.4 101360 87
2004-08-23 06:56:43 51°13.22 2°50.853 6.9 306 14.4 101360 87
2004-08-23 06:56:48 51°13.211 2°50.828 7.5 313 14.4 101370 87
2004-08-23 06:56:53 51°13.202 2°50.803 7 314 14.4 101370 87
2004-08-23 06:57:02 51°13.186 2°50.759 6 315 14.4 101370 87
2004-08-23 06:57:12 51°13.168 2°50.709 7.3 308 14.4 101360 87
2004-08-23 06:57:17 51°13.159 2°50.684 6.5 308 14.4 101370 87
2004-08-23 06:57:21 51°13.152 2°50.664 7.9 302 14.4 101370 87
2004-08-23 06:57:25 51°13.145 2°50.644 6 228 14.4 101370 87
2004-08-23 06:57:36 51°13.125 2°50.59 7.1 318 14.4 101370 88
2004-08-23 06:57:41 51°13.116 2°50.565 5.9 228 14.4 101370 88
2004-08-23 06:57:47 51°13.105 2°50.535 6.6 313 14.4 101370 87
2004-08-23 06:57:51 51°13.098 2°50.516 6.7 306 14.4 101370 87
2004-08-23 06:57:57 51°13.087 2°50.486 6.1 302 14.4 101370 87
2004-08-23 06:58:02 51°13.078 2°50.461 6.7 312 14.4 101370 87
2004-08-23 06:58:07 51°13.069 2°50.437 7.2 228 14.4 101360 88
2004-08-23 06:58:11 51°13.062 2°50.417 7.1 313 14.4 101360 88
2004-08-23 06:58:17 51°13.051 2°50.387 7 228 14.4 101360 87
2004-08-23 06:58:22 51°13.042 2°50.363 6.4 43 14.4 101360 87
2004-08-23 06:58:27 51°13.033 2°50.338 6.2 316 14.3 101370 87
2004-08-23 06:58:31 51°13.025 2°50.319 6.5 317 14.3 101370 87
2004-08-23 06:58:37 51°13.014 2°50.289 6.2 227 14.3 101360 87
2004-08-23 06:58:42 51°13.005 2°50.264 6.3 227 14.3 101360 87
2004-08-23 06:58:46 51°12.998 2°50.245 6.8 310 14.3 101360 87
2004-08-23 06:58:51 51°12.989 2°50.22 6.6 305 14.3 101360 87
2004-08-23 06:58:57 51°12.978 2°50.19 5.8 308 14.3 101370 88
2004-08-23 06:59:02 51°12.969 2°50.165 6.7 320 14.3 101370 88
2004-08-23 06:59:07 51°12.96 2°50.14 6.4 227 14.3 101370 88
2004-08-23 06:59:11 51°12.952 2°50.12 6.9 310 14.3 101370 88
2004-08-23 06:59:17 51°12.942 2°50.09 6.9 227 14.3 101360 88
2004-08-23 06:59:22 51°12.933 2°50.065 7 320 14.3 101360 88
2004-08-23 06:59:27 51°12.924 2°50.04 7.2 313 14.3 101370 88
2004-08-23 06:59:29 51°12.921 2°50.03 6.3 313 14.3 101370 88
2004-08-23 06:59:37 51°12.906 2°49.99 6.5 314 14.3 101360 88
2004-08-23 06:59:41 51°12.899 2°49.97 7 41 14.3 101360 88
2004-08-23 06:59:47 51°12.888 2°49.941 5.8 228 14.3 101370 88
2004-08-23 06:59:52 51°12.879 2°49.916 5.7 318 14.3 101370 88
2004-08-23 06:59:57 51°12.869 2°49.891 7 319 14.3 101370 88
2004-08-23 07:00:02 51°12.861 2°49.866 6.9 41 14.3 101370 88
2004-08-23 07:00:05 51°12.855 2°49.851 6.1 319 14.3 101360 88
2004-08-23 07:00:14 51°12.839 2°49.806 7 311 14.3 101360 88
2004-08-23 07:00:19 51°12.83 2°49.782 6.7 228 14.4 101380 88
2004-08-23 07:00:25 51°12.819 2°49.752 6.7 315 14.4 101380 88
2004-08-23 07:00:30 51°12.81 2°49.727 6.9 41 14.3 101360 88
2004-08-23 07:00:35 51°12.801 2°49.703 6.7 323 14.3 101360 88
2004-08-23 07:00:37 51°12.798 2°49.692 7.1 41 14.4 101370 88
2004-08-23 07:00:45 51°12.783 2°49.653 6.8 227 14.4 101370 88
2004-08-23 07:00:50 51°12.774 2°49.628 6.3 233 14.4 101370 88
2004-08-23 07:00:54 51°12.767 2°49.608 6.6 320 14.4 101370 88
2004-08-23 07:00:58 51°12.76 2°49.588 6.4 317 14.4 101360 88
2004-08-23 07:01:05 51°12.747 2°49.554 6.6 43 14.4 101360 88
2004-08-23 07:01:09 51°12.74 2°49.533 7.2 320 14.4 101370 88
2004-08-23 07:01:14 51°12.731 2°49.509 7.8 315 14.4 101370 88
2004-08-23 07:01:19 51°12.722 2°49.484 7.7 42 14.3 101370 88
2004-08-23 07:01:25 51°12.711 2°49.455 6.8 320 14.3 101370 88
2004-08-23 07:01:29 51°12.703 2°49.435 6.6 319 14.3 101370 88
2004-08-23 07:01:34 51°12.694 2°49.41 7.1 319 14.3 101370 88
2004-08-23 07:01:38 51°12.687 2°49.39 6.9 323 14.3 101370 88
2004-08-23 07:01:45 51°12.674 2°49.355 7.7 317 14.3 101370 88
2004-08-23 07:01:49 51°12.666 2°49.336 6.7 319 14.3 101370 88
2004-08-23 07:01:55 51°12.656 2°49.306 7.6 317 14.3 101370 88
2004-08-23 07:01:58 51°12.651 2°49.291 7.5 319 14.3 101370 88
2004-08-23 07:02:05 51°12.638 2°49.256 7.2 321 14.3 101370 88
2004-08-23 07:02:10 51°12.629 2°49.231 6.8 317 14.3 101370 88
2004-08-23 07:02:15 51°12.62 2°49.206 6.7 321 14.3 101370 88
2004-08-23 07:02:19 51°12.613 2°49.186 6.7 320 14.3 101370 88
2004-08-23 07:02:25 51°12.602 2°49.157 7.2 318 14.3 101370 88
2004-08-23 07:02:30 51°12.593 2°49.131 6.9 317 14.3 101370 88
2004-08-23 07:02:34 51°12.586 2°49.112 7.4 321 14.3 101370 88
2004-08-23 07:02:38 51°12.578 2°49.092 7.8 320 14.3 101380 88
2004-08-23 07:02:45 51°12.566 2°49.057 7 315 14.3 101380 88
2004-08-23 07:02:49 51°12.559 2°49.037 6.9 315 14.3 101380 88
2004-08-23 07:02:55 51°12.548 2°49.007 7.6 321 14.3 101380 88
2004-08-23 07:02:58 51°12.542 2°48.992 8.3 318 14.3 101370 88
2004-08-23 07:03:05 51°12.529 2°48.957 7.6 320 14.3 101370 88
2004-08-23 07:03:10 51°12.52 2°48.933 7.2 44 14.3 101380 88
2004-08-23 07:03:14 51°12.513 2°48.913 7.3 43 14.3 101380 88
2004-08-23 07:03:18 51°12.505 2°48.893 6.8 42 14.3 101380 89
2004-08-23 07:03:25 51°12.493 2°48.858 7.2 315 14.3 101380 89
2004-08-23 07:03:30 51°12.484 2°48.834 7.6 316 14.3 101380 89
2004-08-23 07:03:34 51°12.476 2°48.814 7.9 323 14.3 101380 89
2004-08-23 07:03:37 51°12.471 2°48.798 7.6 318 14.3 101380 89
2004-08-23 07:03:45 51°12.456 2°48.759 6.9 316 14.3 101380 89
2004-08-23 07:03:50 51°12.447 2°48.734 6.8 321 14.3 101380 89
2004-08-23 07:03:54 51°12.44 2°48.714 7.7 42 14.3 101380 89
2004-08-23 07:03:57 51°12.435 2°48.699 7.8 42 14.3 101380 89
2004-08-23 07:04:05 51°12.421 2°48.659 7.6 323 14.3 101380 89
2004-08-23 07:04:10 51°12.412 2°48.633 7.4 326 14.3 101380 89
2004-08-23 07:04:14 51°12.405 2°48.613 7.6 324 14.3 101380 89
2004-08-23 07:04:19 51°12.396 2°48.588 7.2 326 14.3 101380 89
2004-08-23 07:04:30 51°12.377 2°48.533 8.2 322 14.3 101380 89
2004-08-23 07:04:37 51°12.364 2°48.499 8.1 326 14.3 101380 89
2004-08-23 07:04:41 51°12.357 2°48.479 9.2 321 14.3 101380 89
2004-08-23 07:04:46 51°12.347 2°48.454 8.5 44 14.3 101380 89
2004-08-23 07:04:51 51°12.338 2°48.429 7.5 321 14.3 101380 89
2004-08-23 07:04:57 51°12.327 2°48.4 7.8 321 14.3 101380 89
2004-08-23 07:05:02 51°12.318 2°48.374 7.5   14.3 101380 89
2004-08-23 07:05:05 51°12.313 2°48.359 6.8 320 14.3 101380 89
2004-08-23 07:05:11 51°12.302 2°48.329 7.9 319 14.3 101380 89
2004-08-23 07:05:17 51°12.291 2°48.3 7.4 321 14.3 101380 89
2004-08-23 07:05:22 51°12.282 2°48.274 8.2 317 14.3 101380 89
2004-08-23 07:05:27 51°12.273 2°48.249 7 319 14.3 101380 89
2004-08-23 07:05:30 51°12.268 2°48.234 8.3 313 14.3 101380 89
2004-08-23 07:05:37 51°12.255 2°48.2 7.1 322 14.3 101380 89
2004-08-23 07:05:42 51°12.246 2°48.174 7.2 322 14.3 101380 89
2004-08-23 07:05:46 51°12.239 2°48.155 7 319 14.3 101380 89
2004-08-23 07:05:49 51°12.233 2°48.14 7.6 326 14.3 101380 89
2004-08-23 07:05:57 51°12.218 2°48.1 6.9 322 14.3 101380 89
2004-08-23 07:06:02 51°12.209 2°48.075 7.7 42 14.3 101380 89
2004-08-23 07:06:05 51°12.204 2°48.06 7.8 324 14.3 101380 89
2004-08-23 07:06:10 51°12.195 2°48.036 7.7 327 14.3 101380 89
2004-08-23 07:06:17 51°12.182 2°48 7 327 14.3 101380 89
2004-08-23 07:06:22 51°12.173 2°47.976 7 326 14.3 101380 89
2004-08-23 07:06:25 51°12.168 2°47.96 8.3 325 14.3 101380 89
2004-08-23 07:06:32 51°12.155 2°47.925 8.4 318 14.3 101380 89
2004-08-23 07:06:37 51°12.146 2°47.9 8.4 321 14.3 101380 89
2004-08-23 07:06:42 51°12.137 2°47.876 7.4 322 14.3 101380 89
2004-08-23 07:06:46 51°12.129 2°47.856 7.5 326 14.3 101390 90
2004-08-23 07:06:51 51°12.12 2°47.831 7.5 317 14.3 101390 90
2004-08-23 07:06:57 51°12.109 2°47.8 8.3 322 14.3 101380 90
2004-08-23 07:07:02 51°12.099 2°47.776 7.7 327 14.3 101380 90
2004-08-23 07:07:07 51°12.09 2°47.751 8.2 323 14.3 101380 89
2004-08-23 07:07:11 51°12.083 2°47.731 7.4 315 14.3 101380 89
2004-08-23 07:07:17 51°12.072 2°47.701 7.3 316 14.3 101390 89
2004-08-23 07:07:22 51°12.062 2°47.676 7.4 327 14.3 101390 89
2004-08-23 07:07:27 51°12.054 2°47.651 7.5 321 14.3 101380 90
2004-08-23 07:07:31 51°12.046 2°47.631 8.4 323 14.3 101380 90
2004-08-23 07:07:37 51°12.035 2°47.601 9 323 14.3 101390 90
2004-08-23 07:07:41 51°12.028 2°47.581 8.2 317 14.3 101390 90
2004-08-23 07:07:47 51°12.018 2°47.551 8.3 318 14.3 101390 90
2004-08-23 07:07:52 51°12.009 2°47.526 8 320 14.3 101390 90
2004-08-23 07:07:57 51°12 2°47.5 7.4 318 14.3 101390 90
2004-08-23 07:08:01 51°11.993 2°47.48 8.3 325 14.3 101390 90
2004-08-23 07:08:07 51°11.982 2°47.45 8.8 36 14.3 101380 90
2004-08-23 07:08:10 51°11.977 2°47.435 8.3 319 14.3 101380 90
2004-08-23 07:08:23 51°11.953 2°47.37 8.5 319 14.3 101380 90
2004-08-23 07:08:27 51°11.946 2°47.35 9.4 315 14.3 101390 90
2004-08-23 07:08:33 51°11.935 2°47.32 9.1 314 14.3 101390 90
2004-08-23 07:08:38 51°11.926 2°47.295 8.6 319 14.3 101380 90
2004-08-23 07:08:43 51°11.917 2°47.27 7.7 322 14.3 101380 90
2004-08-23 07:08:45 51°11.913 2°47.26 8.1 321 14.3 101380 90
2004-08-23 07:08:53 51°11.898 2°47.22 8.2 325 14.3 101380 90
2004-08-23 07:08:57 51°11.891 2°47.2 8.1 321 14.3 101390 90
2004-08-23 07:09:03 51°11.88 2°47.17 8.4 317 14.3 101390 90
2004-08-23 07:09:07 51°11.873 2°47.15 8.2 316 14.3 101390 90
2004-08-23 07:09:13 51°11.862 2°47.12 7.9 321 14.3 101390 90
2004-08-23 07:09:17 51°11.855 2°47.1 9.6 321 14.3 101390 90
2004-08-23 07:09:23 51°11.844 2°47.07 8.4 323 14.3 101390 90
2004-08-23 07:09:27 51°11.837 2°47.05 8.6 320 14.3 101390 90
2004-08-23 07:09:33 51°11.826 2°47.02 9.2 322 14.3 101390 90
2004-08-23 07:09:37 51°11.818 2°47 7.5 327 14.3 101390 90
2004-08-23 07:09:45 51°11.804 2°46.96 8.4 322 14.3 101380 90
2004-08-23 07:09:52 51°11.792 2°46.925 8 322 14.3 101380 90
2004-08-23 07:09:57 51°11.783 2°46.9 9.4 43 14.3 101390 90
2004-08-23 07:10:02 51°11.774 2°46.875 8.2 318 14.3 101390 90
2004-08-23 07:10:07 51°11.765 2°46.85 8.5 227 14.2 101390 90
2004-08-23 07:10:11 51°11.758 2°46.83 8.3 227 14.2 101390 90
2004-08-23 07:10:17 51°11.747 2°46.799 6.6 228 14.3 101390 90
2004-08-23 07:10:22 51°11.738 2°46.774 8.8 318 14.3 101390 90
2004-08-23 07:10:27 51°11.73 2°46.748 8.8 316 14.3 101380 90
2004-08-23 07:10:31 51°11.722 2°46.728 7.9 318 14.3 101380 90
2004-08-23 07:10:37 51°11.712 2°46.697 7.6 316 14.3 101380 90
2004-08-23 07:10:42 51°11.703 2°46.672 7.1 41 14.3 101380 90
2004-08-23 07:10:45 51°11.697 2°46.657 7.1 320 14.2 101380 90
2004-08-23 07:10:52 51°11.685 2°46.621 7.4 320 14.2 101380 90
2004-08-23 07:10:57 51°11.676 2°46.596 7.8 227 14.2 101380 90
2004-08-23 07:11:01 51°11.669 2°46.576 7.4 318 14.2 101380 90
2004-08-23 07:11:05 51°11.662 2°46.556 6.9 315 14.2 101380 90
2004-08-23 07:11:10 51°11.653 2°46.53 8.3 320 14.2 101380 90
2004-08-23 07:11:17 51°11.641 2°46.494 8.4 317 14.2 101380 90
2004-08-23 07:11:22 51°11.632 2°46.469 7.3 314 14.2 101380 90
2004-08-23 07:11:25 51°11.627 2°46.454 8.4 321 14.2 101380 90
2004-08-23 07:11:30 51°11.617 2°46.428 7.6 317 14.2 101380 90
2004-08-23 07:11:37 51°11.605 2°46.393 7.7 42 14.2 101380 90
2004-08-23 07:11:42 51°11.596 2°46.368 6.7 316 14.2 101380 90
2004-08-23 07:11:45 51°11.591 2°46.352 6.9 324 14.2 101370 90
2004-08-23 07:11:52 51°11.578 2°46.317 7.7 322 14.2 101370 90
2004-08-23 07:11:57 51°11.57 2°46.291 8.1 320 14.2 101380 90
2004-08-23 07:12:02 51°11.56 2°46.266 8 324 14.2 101380 90
2004-08-23 07:12:06 51°11.554 2°46.245 7.4 322 14.2 101380 90
2004-08-23 07:12:11 51°11.545 2°46.22 6.8 323 14.2 101380 90
2004-08-23 07:12:17 51°11.534 2°46.189 7.9 317 14.2 101370 90
2004-08-23 07:12:22 51°11.525 2°46.164 6.9 323 14.2 101370 90
2004-08-23 07:12:27 51°11.516 2°46.139 6.9 324 14.2 101370 90
2004-08-23 07:12:31 51°11.509 2°46.118 8.3 319 14.2 101370 90
2004-08-23 07:12:37 51°11.498 2°46.088 7.1 318 14.2 101370 90
2004-08-23 07:12:42 51°11.489 2°46.063 8 318 14.2 101370 90
2004-08-23 07:12:46 51°11.482 2°46.042 7.2 42 14.2 101370 90
2004-08-23 07:12:51 51°11.473 2°46.016 6.4 319 14.2 101370 90
2004-08-23 07:12:57 51°11.462 2°45.986 6.9 41 14.2 101370 90
2004-08-23 07:13:02 51°11.454 2°45.96 7.5 318 14.2 101370 90
2004-08-23 07:13:05 51°11.449 2°45.944 7.4 313 14.2 101370 90
2004-08-23 07:13:12 51°11.439 2°45.907 6.7 311 14.2 101370 90
2004-08-23 07:13:17 51°11.432 2°45.88 6.1 312 14.2 101370 90
2004-08-23 07:13:21 51°11.427 2°45.858 6.3 316 14.2 101370 90
2004-08-23 07:13:27 51°11.419 2°45.825 6.8 228 14.2 101370 91
2004-08-23 07:13:32 51°11.413 2°45.798 7.3 42 14.2 101370 91
2004-08-23 07:13:35 51°11.41 2°45.781 6.3 44 14.2 101370 91
2004-08-23 07:13:42 51°11.402 2°45.742 6.7 310 14.2 101370 91
2004-08-23 07:13:47 51°11.397 2°45.714 5.6 305 14.2 101380 91
2004-08-23 07:13:52 51°11.392 2°45.686 6.3 310 14.2 101380 91
2004-08-23 07:13:57 51°11.386 2°45.657 7.1 230 14.2 101370 91
2004-08-23 07:14:01 51°11.382 2°45.635 6.5 317 14.2 101370 91
2004-08-23 07:14:07 51°11.376 2°45.601 7.5 311 14.2 101370 91
2004-08-23 07:14:12 51°11.371 2°45.573 6.5 306 14.2 101370 91
2004-08-23 07:14:17 51°11.366 2°45.545 6.7 308 14.2 101370 91
2004-08-23 07:14:22 51°11.36 2°45.517 6.3 308 14.2 101370 91
2004-08-23 07:14:25 51°11.357 2°45.5 6.6 311 14.2 101370 91
2004-08-23 07:14:32 51°11.35 2°45.461 6 229 14.2 101370 91
2004-08-23 07:14:37 51°11.344 2°45.433 5.9 227 14.2 101370 91
2004-08-23 07:14:41 51°11.34 2°45.41 6.8 228 14.2 101370 91
2004-08-23 07:14:46 51°11.335 2°45.383 5.8 228 14.2 101370 91
2004-08-23 07:14:51 51°11.33 2°45.354 6.8 317 14.2 101370 91
2004-08-23 07:14:57 51°11.324 2°45.32 6.5 311 14.2 101370 91
2004-08-23 07:15:02 51°11.32 2°45.291 7.9 312 14.2 101370 91
2004-08-23 07:15:05 51°11.316 2°45.275 6.8 314 14.1 101370 91
2004-08-23 07:15:09 51°11.312 2°45.252 6.4 311 14.1 101370 91
2004-08-23 07:15:17 51°11.304 2°45.206 6.3 314 14.2 101370 91
2004-08-23 07:15:22 51°11.298 2°45.178 6.3 318 14.2 101370 91
2004-08-23 07:15:25 51°11.295 2°45.161 5.9 227 14.1 101370 91
2004-08-23 07:15:29 51°11.291 2°45.138 6.5 314 14.1 101370 91
2004-08-23 07:15:37 51°11.284 2°45.092 5.9 314 14.1 101370 91
2004-08-23 07:15:42 51°11.279 2°45.063 6.1 314 14.1 101370 91
2004-08-23 07:15:45 51°11.276 2°45.046 5.9 42 14.2 101370 91
2004-08-23 07:15:54 51°11.267 2°44.995 6.7 313 14.2 101370 91
2004-08-23 07:15:58 51°11.262 2°44.972 6.4 43 14.2 101370 91
2004-08-23 07:16:09 51°11.251 2°44.909 6.3 314 14.2 101370 91
2004-08-23 07:16:15 51°11.244 2°44.875 6.5 321 14.2 101370 91
2004-08-23 07:16:21 51°11.238 2°44.84 6.4 317 14.2 101370 91
2004-08-23 07:16:26 51°11.232 2°44.813 5.8 228 14.2 101370 91
2004-08-23 07:16:29 51°11.229 2°44.796 6.5 312 14.2 101370 91
2004-08-23 07:16:36 51°11.221 2°44.756 6.5 309 14.2 101370 91
2004-08-23 07:16:38 51°11.219 2°44.744 6.6 310 14.2 101370 91
2004-08-23 07:16:46 51°11.211 2°44.699 6.9 312 14.2 101360 91
2004-08-23 07:16:49 51°11.208 2°44.682 6.4 308 14.2 101360 91
2004-08-23 07:16:54 51°11.202 2°44.654 5.9 310 14.2 101370 92
2004-08-23 07:17:01 51°11.194 2°44.614 5.4   14.2 101370 92
2004-08-23 07:17:05 51°11.19 2°44.591 6 312 14.2 101370 91
2004-08-23 07:17:11 51°11.184 2°44.557 6.2 314 14.2 101370 91
2004-08-23 07:17:14 51°11.181 2°44.539 7.2 314 14.2 101370 92
2004-08-23 07:17:21 51°11.174 2°44.499 5.9 305 14.2 101370 92
2004-08-23 07:17:26 51°11.169 2°44.471 6.2 311 14.2 101370 92
2004-08-23 07:17:30 51°11.165 2°44.448 6.9 308 14.2 101370 92
2004-08-23 07:17:34 51°11.161 2°44.425 6.5 308 14.2 101370 92
2004-08-23 07:17:41 51°11.154 2°44.385 5.4 312 14.2 101370 92
2004-08-23 07:17:46 51°11.15 2°44.356 5.3 308 14.2 101370 92
2004-08-23 07:17:51 51°11.145 2°44.328 6.2 227 14.2 101370 92
2004-08-23 07:17:54 51°11.142 2°44.31 6 314 14.2 101370 92
2004-08-23 07:17:58 51°11.139 2°44.287 6.4 313 14.2 101370 92
2004-08-23 07:18:05 51°11.132 2°44.246 6.4 316 14.2 101370 92
2004-08-23 07:18:10 51°11.128 2°44.217 6.5 318 14.2 101370 92
2004-08-23 07:18:14 51°11.124 2°44.194 6.4 313 14.2 101370 92
2004-08-23 07:18:21 51°11.117 2°44.154 5.7 308 14.2 101370 92
2004-08-23 07:18:26 51°11.113 2°44.125 6.7 314 14.2 101360 92
2004-08-23 07:18:29 51°11.11 2°44.108 5.7 307 14.2 101360 92
2004-08-23 07:18:36 51°11.104 2°44.068 5.7 308 14.2 101370 92
2004-08-23 07:18:41 51°11.099 2°44.039 6.4 314 14.2 101370 92
2004-08-23 07:18:45 51°11.095 2°44.016 6.4 313 14.2 101370 92
2004-08-23 07:18:50 51°11.091 2°43.987 5.4 309 14.2 101370 92
2004-08-23 07:18:54 51°11.087 2°43.964 5 312 14.2 101370 92
2004-08-23 07:19:01 51°11.08 2°43.924 6.1 227 14.2 101370 92
2004-08-23 07:19:05 51°11.077 2°43.901 6.4 311 14.2 101370 92
2004-08-23 07:19:10 51°11.072 2°43.872 6.5 315 14.2 101370 92
2004-08-23 07:19:15 51°11.067 2°43.843 6.1 310 14.2 101370 92
2004-08-23 07:19:19 51°11.063 2°43.82 6 316 14.2 101370 92
2004-08-23 07:19:26 51°11.057 2°43.78 5.8 312 14.2 101370 92
2004-08-23 07:19:31 51°11.052 2°43.751 5.5 228 14.2 101370 92
2004-08-23 07:19:33 51°11.05 2°43.739 5.3 323 14.2 101360 92
2004-08-23 07:19:38 51°11.046 2°43.711 5.7 228 14.2 101360 92
2004-08-23 07:19:46 51°11.038 2°43.665 5.1 314 14.2 101370 92
2004-08-23 07:19:50 51°11.035 2°43.641 5.5 313 14.2 101370 92
2004-08-23 07:19:54 51°11.031 2°43.618 3.3 228 14.2 101370 92
2004-08-23 07:20:01 51°11.025 2°43.578 6.5 41 14.2 101370 92
2004-08-23 07:20:05 51°11.021 2°43.555 6.7 309 14.1 101370 92
2004-08-23 07:20:14 51°11.013 2°43.503 5.5 304 14.1 101370 92
2004-08-23 07:20:18 51°11.01 2°43.479 5.9 300 14.2 101370 92
2004-08-23 07:20:29 51°11 2°43.416 6.1 318 14.2 101370 92
2004-08-23 07:20:35 51°10.994 2°43.381 5.1 227 14.2 101360 92
2004-08-23 07:20:41 51°10.989 2°43.347 6.3 309 14.2 101360 92
2004-08-23 07:20:46 51°10.984 2°43.318 5.8 306 14.1 101360 92
2004-08-23 07:20:49 51°10.981 2°43.301 5.4 309 14.1 101360 92
2004-08-23 07:20:56 51°10.974 2°43.261 5.9 311 14.2 101360 92
2004-08-23 07:20:58 51°10.972 2°43.249 6.1 228 14.2 101360 92
2004-08-23 07:21:06 51°10.965 2°43.203 6 313 14.2 101360 92
2004-08-23 07:21:09 51°10.962 2°43.186 6.2 308 14.2 101360 92
2004-08-23 07:21:14 51°10.958 2°43.157 5.7 313 14.2 101370 92
2004-08-23 07:21:21 51°10.951 2°43.117 3.3 315 14.2 101370 92
2004-08-23 07:21:26 51°10.946 2°43.088 5.6 41 14.2 101360 92
2004-08-23 07:21:31 51°10.941 2°43.059 5.8 311 14.2 101360 92
2004-08-23 07:21:34 51°10.938 2°43.042 6.2 311 14.2 101360 92
2004-08-23 07:21:41 51°10.932 2°43.002 5.2 306 14.2 101360 92
2004-08-23 07:21:46 51°10.927 2°42.973 6.3 318 14.2 101360 92
2004-08-23 07:21:50 51°10.924 2°42.95 5.5 43 14.2 101360 92
2004-08-23 07:21:54 51°10.92 2°42.927 6.4 318 14.2 101360 92
2004-08-23 07:22:01 51°10.914 2°42.887 6.5 304 14.2 101360 92
2004-08-23 07:22:05 51°10.91 2°42.864 5.3 304 14.2 101360 92
2004-08-23 07:22:14 51°10.901 2°42.812 6.8 308 14.2 101360 92
2004-08-23 07:22:18 51°10.898 2°42.789 6.4 315 14.2 101360 92
2004-08-23 07:22:25 51°10.891 2°42.749 6 315 14.2 101360 92
2004-08-23 07:22:29 51°10.888 2°42.726 5.6 227 14.2 101360 92
2004-08-23 07:22:33 51°10.884 2°42.703 6.2 309 14.2 101360 92
2004-08-23 07:22:37 51°10.881 2°42.68 5.1 314 14.2 101360 92
2004-08-23 07:22:42 51°10.876 2°42.651 5 312 14.2 101360 92
2004-08-23 07:22:49 51°10.87 2°42.61 5.4 314 14.2 101360 93
2004-08-23 07:22:55 51°10.865 2°42.575 4.5 312 14.2 101360 93
2004-08-23 07:22:57 51°10.863 2°42.564 5.1 313 14.2 101360 93
2004-08-23 07:23:05 51°10.856 2°42.518 4.8 305 14.2 101360 93
2004-08-23 07:23:09 51°10.853 2°42.495 4.9 227 14.2 101360 93
2004-08-23 07:23:14 51°10.848 2°42.466 5.2 309 14.2 101360 93
2004-08-23 07:23:17 51°10.845 2°42.448 4.9 308 14.2 101360 93
2004-08-23 07:23:25 51°10.838 2°42.402 5.2 310 14.2 101360 93
2004-08-23 07:23:34 51°10.83 2°42.35 5.4 307 14.2 101350 92
2004-08-23 07:23:38 51°10.826 2°42.327 5.6 308 14.2 101350 93
2004-08-23 07:23:45 51°10.819 2°42.287 6.1 313 14.2 101350 93
2004-08-23 07:23:49 51°10.815 2°42.264 5 307 14.2 101350 93
2004-08-23 07:23:55 51°10.81 2°42.228 4.6 314 14.2 101350 93
2004-08-23 07:23:58 51°10.808 2°42.211 4.8 228 14.3 101350 93
2004-08-23 07:24:05 51°10.802 2°42.171 5.7 297 14.3 101350 93
2004-08-23 07:24:10 51°10.797 2°42.142 5.1 302 14.2 101340 93
2004-08-23 07:24:14 51°10.793 2°42.119 5.7 294 14.2 101340 93
2004-08-23 07:24:19 51°10.788 2°42.09 4.4 296 14.3 101350 93
2004-08-23 07:24:25 51°10.783 2°42.055 3.9 301 14.3 101350 93
2004-08-23 07:24:29 51°10.779 2°42.032 5.3 228 14.2 101340 93
2004-08-23 07:24:34 51°10.775 2°42.003 5 309 14.2 101340 93
2004-08-23 07:24:38 51°10.772 2°41.98 5.1 305 14.2 101340 93
2004-08-23 07:24:45 51°10.766 2°41.939 4.6 304 14.2 101340 93
2004-08-23 07:24:54 51°10.758 2°41.887 4.9 311 14.3 101340 93
2004-08-23 07:24:59 51°10.754 2°41.858 4.3 311 14.3 101340 93
2004-08-23 07:25:05 51°10.748 2°41.824 4.7 311 14.3 101340 93
2004-08-23 07:25:10 51°10.743 2°41.795 4.5 314 14.3 101340 93
2004-08-23 07:25:14 51°10.74 2°41.771 4.7 308 14.3 101340 93
2004-08-23 07:25:19 51°10.735 2°41.742 4.3 310 14.3 101340 93
2004-08-23 07:25:25 51°10.73 2°41.708 5 307 14.3 101340 93
2004-08-23 07:25:30 51°10.725 2°41.679 4.5 307 14.3 101340 93
2004-08-23 07:25:34 51°10.722 2°41.656 3.9 308 14.3 101340 93
2004-08-23 07:25:37 51°10.719 2°41.638 3.9 303 14.3 101340 93
2004-08-23 07:25:45 51°10.712 2°41.592 4 310 14.3 101340 93
2004-08-23 07:25:50 51°10.707 2°41.563 4.4 302 14.3 101330 93
2004-08-23 07:25:55 51°10.703 2°41.534 3.9 308 14.3 101330 93
2004-08-23 07:25:59 51°10.699 2°41.511 3.6 314 14.3 101340 93
2004-08-23 07:26:05 51°10.693 2°41.476 4 314 14.3 101340 93
2004-08-23 07:26:10 51°10.689 2°41.447 5 311 14.3 101340 93
2004-08-23 07:26:14 51°10.685 2°41.424 4.5 310 14.3 101340 93
2004-08-23 07:26:18 51°10.682 2°41.401 4.6 303 14.3 101340 93
2004-08-23 07:26:25 51°10.676 2°41.36 4.8 306 14.3 101340 93
2004-08-23 07:26:29 51°10.673 2°41.337 5.3 297 14.3 101330 93
2004-08-23 07:26:35 51°10.668 2°41.302 4.7 290 14.3 101330 93
2004-08-23 07:26:38 51°10.665 2°41.285 4.1 287 14.3 101330 93
2004-08-23 07:26:45 51°10.659 2°41.244 4.7 287 14.3 101330 93
2004-08-23 07:26:50 51°10.653 2°41.215 4.2 312 14.3 101330 93
2004-08-23 07:26:55 51°10.649 2°41.186 4.7 310 14.3 101330 93
2004-08-23 07:26:58 51°10.646 2°41.169 5.4 308 14.3 101330 93
2004-08-23 07:27:05 51°10.64 2°41.128 5.2 300 14.3 101330 93
2004-08-23 07:27:10 51°10.635 2°41.099 4.9 301 14.3 101330 93
2004-08-23 07:27:14 51°10.632 2°41.076 4.7 314 14.3 101330 93
2004-08-23 07:27:19 51°10.627 2°41.047 3.4 310 14.3 101330 93
2004-08-23 07:27:25 51°10.623 2°41.012 4.1 301 14.3 101330 93
2004-08-23 07:27:30 51°10.618 2°40.983 3.5 310 14.3 101330 93
2004-08-23 07:27:35 51°10.614 2°40.954 4.6 308 14.3 101330 93
2004-08-23 07:27:38 51°10.611 2°40.937 4.5 303 14.3 101330 93
2004-08-23 07:27:45 51°10.605 2°40.896 4.7 301 14.3 101330 93
2004-08-23 07:27:50 51°10.601 2°40.867 4.8 299 14.3 101330 93
2004-08-23 07:27:55 51°10.596 2°40.838 4.2 295 14.3 101330 93
2004-08-23 07:27:57 51°10.594 2°40.826 4 301 14.3 101330 93
2004-08-23 07:28:05 51°10.587 2°40.779 4.4 310 14.3 101330 93
2004-08-23 07:28:10 51°10.583 2°40.751 4.1 314 14.3 101340 93
2004-08-23 07:28:15 51°10.579 2°40.721 4.6 316 14.3 101340 93
2004-08-23 07:28:19 51°10.575 2°40.698 4.7 43 14.3 101330 93
2004-08-23 07:28:25 51°10.57 2°40.663 5.1 43 14.3 101330 93
2004-08-23 07:28:30 51°10.566 2°40.634 4 305 14.3 101340 93
2004-08-23 07:28:35 51°10.562 2°40.604 4.1 304 14.3 101340 93
2004-08-23 07:28:39 51°10.559 2°40.581 3.9 306 14.3 101340 93
2004-08-23 07:28:45 51°10.554 2°40.546 3.8 306 14.3 101340 93
2004-08-23 07:28:49 51°10.551 2°40.523 4.6 306 14.3 101330 93
2004-08-23 07:28:54 51°10.546 2°40.493 4.1 305 14.3 101330 93
2004-08-23 07:28:57 51°10.544 2°40.476 4.4 301 14.3 101330 93
2004-08-23 07:29:05 51°10.537 2°40.429 4.3 300 14.3 101330 93
2004-08-23 07:29:10 51°10.532 2°40.4 4.8 312 14.3 101330 93
2004-08-23 07:29:15 51°10.528 2°40.371 4.6 297 14.3 101330 93
2004-08-23 07:29:18 51°10.525 2°40.354 5 315 14.3 101340 93
2004-08-23 07:29:25 51°10.518 2°40.313 5.1 298 14.3 101340 93
2004-08-23 07:29:30 51°10.514 2°40.284 5.3 306 14.4 101340 93
2004-08-23 07:29:35 51°10.509 2°40.256 5.7 302 14.4 101340 93
2004-08-23 07:29:38 51°10.506 2°40.238 5.6 299 14.4 101330 93
2004-08-23 07:29:45 51°10.5 2°40.198 4.5 308 14.4 101330 93
2004-08-23 07:29:53 51°10.493 2°40.151 3.8 303 14.4 101330 93
2004-08-23 07:30:00 51°10.487 2°40.111 4 307 14.4 101320 93
2004-08-23 07:30:05 51°10.482 2°40.082 3.9 323 14.4 101320 93
2004-08-23 07:30:09 51°10.479 2°40.059 5 309 14.4 101320 93
2004-08-23 07:30:15 51°10.474 2°40.024 4.9 301 14.4 101320 93
2004-08-23 07:30:19 51°10.47 2°40.001 4.9 307 14.4 101330 93
2004-08-23 07:30:25 51°10.465 2°39.966 4.6 312 14.4 101330 93
2004-08-23 07:30:30 51°10.46 2°39.937 5.1 296 14.5 101330 93
2004-08-23 07:30:34 51°10.457 2°39.914 4.2 305 14.5 101330 93
2004-08-23 07:30:39 51°10.452 2°39.885 4.3 300 14.5 101330 93
2004-08-23 07:30:45 51°10.446 2°39.851 3.6 301 14.5 101330 93
2004-08-23 07:30:50 51°10.442 2°39.822 4.6 300 14.5 101330 93
2004-08-23 07:30:55 51°10.437 2°39.793 3.8 299 14.5 101330 93
2004-08-23 07:31:00 51°10.433 2°39.764 4.1 291 14.5 101320 93
2004-08-23 07:31:05 51°10.429 2°39.736 4.1 297 14.5 101320 93
2004-08-23 07:31:10 51°10.425 2°39.707 4.3 294 14.5 101320 93
2004-08-23 07:31:14 51°10.421 2°39.684 3.6 299 14.5 101320 93
2004-08-23 07:31:18 51°10.418 2°39.66 4.7 308 14.5 101320 93
2004-08-23 07:31:25 51°10.411 2°39.62 4.3 227 14.5 101320 93
2004-08-23 07:31:30 51°10.407 2°39.591 4.2 296 14.5 101320 93
2004-08-23 07:31:34 51°10.403 2°39.568 3.3 297 14.5 101320 93
2004-08-23 07:31:40 51°10.398 2°39.533 4.5 298 14.5 101320 93
2004-08-23 07:31:43 51°10.395 2°39.516 4.5 293 14.5 101320 93
2004-08-23 07:31:49 51°10.39 2°39.481 4.3 293 14.5 101320 93
2004-08-23 07:31:54 51°10.386 2°39.452 4.1 294 14.5 101320 93
2004-08-23 07:31:58 51°10.383 2°39.429 4.1 290 14.5 101320 93
2004-08-23 07:32:05 51°10.377 2°39.388 4 301 14.5 101320 93
2004-08-23 07:32:09 51°10.373 2°39.365 4.5 303 14.5 101310 93
2004-08-23 07:32:14 51°10.369 2°39.336 3.9 293 14.5 101310 93
2004-08-23 07:32:18 51°10.365 2°39.313 3.7 294 14.5 101320 93
2004-08-23 07:32:25 51°10.36 2°39.272 4.1 293 14.5 101320 93
2004-08-23 07:32:30 51°10.355 2°39.243 2.9 302 14.5 101320 92
2004-08-23 07:32:34 51°10.352 2°39.22 4.8 293 14.5 101320 92
2004-08-23 07:32:39 51°10.347 2°39.191 4.5 299 14.5 101310 92
2004-08-23 07:32:45 51°10.342 2°39.156 4.6 287 14.5 101310 92
2004-08-23 07:32:50 51°10.338 2°39.127 4.2 281 14.4 101310 92
2004-08-23 07:32:55 51°10.333 2°39.099 3.9 288 14.4 101310 92
2004-08-23 07:33:00 51°10.329 2°39.07 3.9 285 14.5 101310 92
2004-08-23 07:33:05 51°10.324 2°39.041 3.6 297 14.5 101310 92
2004-08-23 07:33:10 51°10.32 2°39.012 3.2 298 14.5 101310 92
2004-08-23 07:33:14 51°10.317 2°38.988 3.7 295 14.5 101310 92
2004-08-23 07:33:18 51°10.313 2°38.965 3.5 284 14.5 101310 92
2004-08-23 07:33:25 51°10.308 2°38.925 3.4 297 14.5 101310 92
2004-08-23 07:33:30 51°10.303 2°38.896 3.5 308 14.5 101310 92
2004-08-23 07:33:34 51°10.301 2°38.872 3.5 300 14.5 101310 92
2004-08-23 07:33:40 51°10.296 2°38.837 3.2 302 14.5 101310 92
2004-08-23 07:33:43 51°10.293 2°38.82 3.6 296 14.5 101310 92
2004-08-23 07:33:49 51°10.289 2°38.785 3.1 298 14.5 101310 92
2004-08-23 07:33:53 51°10.286 2°38.761 4.2 304 14.5 101310 92
2004-08-23 07:34:00 51°10.28 2°38.721 3.6 294 14.5 101310 92
2004-08-23 07:34:05 51°10.276 2°38.692 5.3 297 14.5 101310 92
2004-08-23 07:34:09 51°10.272 2°38.669 4.3 298 14.5 101310 92
2004-08-23 07:34:15 51°10.267 2°38.635 4.1 299 14.5 101310 92
2004-08-23 07:34:19 51°10.263 2°38.612 4 299 14.6 101320 93
2004-08-23 07:34:25 51°10.258 2°38.577 4.2 295 14.6 101320 93
2004-08-23 07:34:30 51°10.253 2°38.549 3.7 311 14.6 101310 93
2004-08-23 07:34:34 51°10.25 2°38.526 4.9 301 14.6 101310 93
2004-08-23 07:34:38 51°10.246 2°38.503 3.2 302 14.6 101310 93
2004-08-23 07:34:45 51°10.24 2°38.463 4.6 299 14.6 101310 93
2004-08-23 07:34:50 51°10.236 2°38.434 4.1 296 14.6 101310 93
2004-08-23 07:34:53 51°10.233 2°38.416 4.6 292 14.6 101310 93
2004-08-23 07:35:02 51°10.226 2°38.364 4.5 305 14.6 101320 93
2004-08-23 07:35:07 51°10.222 2°38.335 2.6 285 14.7 101310 93
2004-08-23 07:35:13 51°10.217 2°38.301 4.1 287 14.7 101310 93
2004-08-23 07:35:18 51°10.213 2°38.272 4 289 14.7 101310 93
2004-08-23 07:35:22 51°10.21 2°38.25 3.3 286 14.7 101310 93
2004-08-23 07:35:28 51°10.206 2°38.215 4 286 14.6 101310 92
2004-08-23 07:35:33 51°10.201 2°38.186 3.6 310 14.6 101310 92
2004-08-23 07:35:37 51°10.198 2°38.163 3.9 303 14.6 101310 92
2004-08-23 07:35:42 51°10.194 2°38.134 3.9 295 14.6 101310 92
2004-08-23 07:35:46 51°10.191 2°38.111 4.6 291 14.6 101310 92
2004-08-23 07:35:53 51°10.186 2°38.071 3.6 292 14.6 101310 92
2004-08-23 07:35:58 51°10.182 2°38.042 4.1 294 14.6 101310 92
2004-08-23 07:36:02 51°10.178 2°38.019 4.9 307 14.6 101310 92
2004-08-23 07:36:08 51°10.172 2°37.984 4.6 296 14.7 101310 92
2004-08-23 07:36:13 51°10.168 2°37.955 4.7 292 14.7 101310 92
2004-08-23 07:36:17 51°10.164 2°37.932 3.6 291 14.7 101310 92
2004-08-23 07:36:22 51°10.16 2°37.903 4.2 288 14.7 101310 92
2004-08-23 07:36:26 51°10.156 2°37.88 4.2 289 14.7 101310 92
2004-08-23 07:36:33 51°10.149 2°37.839 4.3 288 14.7 101310 92
2004-08-23 07:36:38 51°10.145 2°37.81 4 291 14.7 101310 92
2004-08-23 07:36:42 51°10.141 2°37.787 4 300 14.7 101310 92
2004-08-23 07:36:48 51°10.135 2°37.752 3.7 284 14.7 101310 92
2004-08-23 07:36:53 51°10.131 2°37.723 3.7 286 14.7 101310 92
2004-08-23 07:36:58 51°10.126 2°37.694 3.3 286 14.7 101310 92
2004-08-23 07:37:02 51°10.123 2°37.671 3.9 284 14.7 101310 92
2004-08-23 07:37:07 51°10.119 2°37.642 3.3 304 14.7 101310 92
2004-08-23 07:37:13 51°10.113 2°37.607 4.5 293 14.7 101310 92
2004-08-23 07:37:18 51°10.109 2°37.578 4.4 296 14.7 101310 92
2004-08-23 07:37:22 51°10.106 2°37.554 4.3 287 14.7 101310 92
2004-08-23 07:37:27 51°10.101 2°37.525 4.1 285 14.7 101300 92
2004-08-23 07:37:33 51°10.096 2°37.49 3.7 294 14.7 101300 92
2004-08-23 07:37:38 51°10.092 2°37.461 3.3 308 14.7 101300 92
2004-08-23 07:37:43 51°10.087 2°37.432 3.3 286 14.7 101300 92
2004-08-23 07:37:45 51°10.086 2°37.42 3.6 281 14.7 101300 92
2004-08-23 07:37:52 51°10.08 2°37.379 3.4 296 14.7 101300 92
2004-08-23 07:37:57 51°10.075 2°37.35 2.2 290 14.7 101300 92
2004-08-23 07:38:03 51°10.071 2°37.315 2.8 287 14.7 101300 92
2004-08-23 07:38:07 51°10.067 2°37.292 2.8 296 14.8 101300 92
2004-08-23 07:38:13 51°10.062 2°37.257 3.4 291 14.8 101300 92
2004-08-23 07:38:18 51°10.058 2°37.227 2.8 289 14.7 101300 91
2004-08-23 07:38:22 51°10.055 2°37.204 3.3 308 14.7 101300 91
2004-08-23 07:38:28 51°10.049 2°37.169 3.4 297 14.7 101300 91
2004-08-23 07:38:33 51°10.044 2°37.14 3.5 283 14.7 101300 91
2004-08-23 07:38:38 51°10.04 2°37.111 2.8 310 14.7 101300 91
2004-08-23 07:38:42 51°10.036 2°37.087 3.8 290 14.7 101300 91
2004-08-23 07:38:47 51°10.031 2°37.058 3.6 286 14.8 101300 91
2004-08-23 07:38:53 51°10.026 2°37.023 3.7 290 14.8 101300 91
2004-08-23 07:38:58 51°10.022 2°36.993 3.6 288 14.8 101300 91
2004-08-23 07:39:02 51°10.019 2°36.969 3.1 292 14.8 101300 91
2004-08-23 07:39:07 51°10.015 2°36.94 3 290 14.8 101300 91
2004-08-23 07:39:13 51°10.012 2°36.904 2.3 288 14.8 101300 91
2004-08-23 07:39:18 51°10.01 2°36.873 2.6 286 14.8 101300 91
2004-08-23 07:39:23 51°10.009 2°36.843 1.7 300 14.8 101300 91
2004-08-23 07:39:25 51°10.008 2°36.831 1.8 306 14.8 101300 91
2004-08-23 07:39:32 51°10.007 2°36.789 2.1 302 14.8 101300 91
2004-08-23 07:39:37 51°10.007 2°36.759 2.2 307 14.9 101310 91
2004-08-23 07:39:43 51°10.007 2°36.722 2.1 280 14.9 101310 91
2004-08-23 07:39:47 51°10.007 2°36.698 1.6 268 14.9 101300 91
2004-08-23 07:39:53 51°10.006 2°36.662 1.7 258 14.9 101300 91
2004-08-23 07:39:57 51°10.007 2°36.637 1.7 272 14.9 101310 91
2004-08-23 07:40:02 51°10.006 2°36.607 2.2 280 14.9 101310 91
2004-08-23 07:40:05 51°10.007 2°36.589 1.4 294 14.9 101300 91
2004-08-23 07:40:13 51°10.006 2°36.54 1.4 285 14.9 101300 91
2004-08-23 07:40:18 51°10.006 2°36.51 1.2 291 14.9 101310 91
2004-08-23 07:40:21 51°10.006 2°36.492 1.8 276 14.9 101310 91
2004-08-23 07:40:28 51°10.006 2°36.45 1.8 281 14.9 101300 91
2004-08-23 07:40:33 51°10.005 2°36.419 1.9 288 14.9 101300 91
2004-08-23 07:40:38 51°10.005 2°36.389 1.5 278 15 101310 91
2004-08-23 07:40:43 51°10.005 2°36.359 1.3 285 15 101310 91
2004-08-23 07:40:48 51°10.006 2°36.329 1 291 15 101310 91
2004-08-23 07:40:53 51°10.007 2°36.299 1.1 293 15 101310 91
2004-08-23 07:40:57 51°10.008 2°36.275 1.5 305 15 101310 91
2004-08-23 07:41:02 51°10.01 2°36.245 1.7 285 15 101310 91
2004-08-23 07:41:06 51°10.011 2°36.221 1.8 297 15 101310 91
2004-08-23 07:41:13 51°10.014 2°36.179 1.8 298 15 101310 91
2004-08-23 07:41:17 51°10.016 2°36.155 2.1 308 15 101310 91
2004-08-23 07:41:22 51°10.018 2°36.125 2.2 314 15 101310 91
2004-08-23 07:41:26 51°10.02 2°36.101 2 275 15 101310 91
2004-08-23 07:41:33 51°10.022 2°36.06 1.8 276 15 101310 91
2004-08-23 07:41:38 51°10.024 2°36.03 2 273 15 101310 91
2004-08-23 07:41:43 51°10.026 2°36 1.5 286 15 101310 91
2004-08-23 07:41:48 51°10.028 2°35.97 1.3 283 15 101310 91
2004-08-23 07:41:53 51°10.03 2°35.94 1.1 258 15 101310 91
2004-08-23 07:41:58 51°10.032 2°35.91 1.3 260 15 101310 91
2004-08-23 07:42:03 51°10.035 2°35.88 1 255 15 101310 91
2004-08-23 07:42:08 51°10.037 2°35.851 1.1 258 15 101310 91
2004-08-23 07:42:13 51°10.039 2°35.821 1.1 256 15 101310 91
2004-08-23 07:42:17 51°10.041 2°35.797 2 296 15 101300 90
2004-08-23 07:42:21 51°10.042 2°35.773 2.4 280 15 101300 90
2004-08-23 07:42:27 51°10.045 2°35.737 2.2 269 15 101310 90
2004-08-23 07:42:33 51°10.048 2°35.702 1.7 282 15 101310 90
2004-08-23 07:42:37 51°10.05 2°35.678 1.7 271 15.1 101300 90
2004-08-23 07:42:42 51°10.054 2°35.649 0.7 260 15.1 101300 90
2004-08-23 07:42:48 51°10.06 2°35.614 0.5 228 15.1 101300 90
2004-08-23 07:42:50 51°10.062 2°35.603 0.9 111 15.1 101300 90
2004-08-23 07:42:57 51°10.075 2°35.566 1.1 96 15 101300 90
2004-08-23 07:43:02 51°10.086 2°35.542 3.5 91 15 101300 90
2004-08-23 07:43:08 51°10.1 2°35.514 4.3 85 15.1 101300 90
2004-08-23 07:43:13 51°10.114 2°35.495 6 90 15.1 101300 90
2004-08-23 07:43:17 51°10.126 2°35.48 5.8 93 15.1 101310 90
2004-08-23 07:43:23 51°10.145 2°35.461 6.4 82 15.1 101310 90
2004-08-23 07:43:27 51°10.158 2°35.451 5.3 78 15.1 101300 90
2004-08-23 07:43:33 51°10.179 2°35.438 7.2 72 15.1 101300 90
2004-08-23 07:43:38 51°10.197 2°35.431 9.2 65 15.1 101300 90
2004-08-23 07:43:42 51°10.212 2°35.428 7.4 73 15.1 101300 90
2004-08-23 07:43:47 51°10.231 2°35.426 9 69 15.1 101300 89
2004-08-23 07:43:52 51°10.25 2°35.427 10.7 64 15.1 101300 89
2004-08-23 07:43:58 51°10.272 2°35.433 10.2 62 15.1 101290 89
2004-08-23 07:44:03 51°10.291 2°35.44 11.4 57 15.1 101290 89
2004-08-23 07:44:05 51°10.298 2°35.444 11.5 54 15.1 101280 89
2004-08-23 07:44:13 51°10.327 2°35.458 11.2 53 15.1 101280 89
2004-08-23 07:44:18 51°10.344 2°35.469 11.7 47 15.1 101280 88
2004-08-23 07:44:23 51°10.362 2°35.48 12.3 50 15.1 101280 88
2004-08-23 07:44:25 51°10.369 2°35.485 12.3 55 15.2 101270 88
2004-08-23 07:44:33 51°10.397 2°35.505 11.4 51 15.2 101270 88
2004-08-23 07:44:38 51°10.414 2°35.518 12.4 45 15.2 101260 88
2004-08-23 07:44:43 51°10.431 2°35.532 12.4 48 15.2 101260 88
2004-08-23 07:44:45 51°10.438 2°35.537 12.9 50 15.2 101260 87
2004-08-23 07:44:53 51°10.466 2°35.559 13.1 45 15.2 101260 87
2004-08-23 07:44:58 51°10.483 2°35.573 13.1 50 15.2 101260 87
2004-08-23 07:45:02 51°10.496 2°35.584 13 50 15.2 101260 87
2004-08-23 07:45:06 51°10.51 2°35.595 12.3 49 15.3 101260 87
2004-08-23 07:45:12 51°10.53 2°35.612 12.3 44 15.3 101260 87
2004-08-23 07:45:18 51°10.551 2°35.629 12.8 49 15.3 101260 86
2004-08-23 07:45:23 51°10.568 2°35.643 11.9 52 15.3 101260 86
2004-08-23 07:45:28 51°10.585 2°35.658 12.5 48 15.3 101260 86
2004-08-23 07:45:33 51°10.602 2°35.672 13.4 48 15.3 101260 86
2004-08-23 07:45:38 51°10.618 2°35.687 13.1 48 15.3 101260 87
2004-08-23 07:45:43 51°10.635 2°35.702 12.3 50 15.3 101260 87
2004-08-23 07:45:45 51°10.642 2°35.709 12.7 44 15.3 101260 86
2004-08-23 07:45:53 51°10.668 2°35.733 13 42 15.3 101260 86
2004-08-23 07:46:03 51°10.702 2°35.764 12.8 46 15.3 101260 86
2004-08-23 07:46:07 51°10.715 2°35.776 13.3 46 15.3 101260 85
2004-08-23 07:46:13 51°10.736 2°35.795 12.7 50 15.3 101260 85
2004-08-23 07:46:18 51°10.752 2°35.81 12.7 48 15.3 101260 86
2004-08-23 07:46:23 51°10.769 2°35.825 12.9 45 15.3 101260 86
2004-08-23 07:46:28 51°10.786 2°35.84 13.4 48 15.3 101260 86
2004-08-23 07:46:32 51°10.799 2°35.852 12.4 50 15.3 101260 86
2004-08-23 07:46:37 51°10.816 2°35.867 12 52 15.3 101250 85
2004-08-23 07:46:42 51°10.833 2°35.882 12.6 42 15.3 101250 85
2004-08-23 07:46:46 51°10.846 2°35.894 13.2 43 15.3 101260 85
2004-08-23 07:46:53 51°10.87 2°35.915 12.6 41 15.3 101260 85
2004-08-23 07:46:58 51°10.886 2°35.93 13.4 46 15.3 101250 85
2004-08-23 07:47:03 51°10.903 2°35.945 13.5 48 15.3 101250 85
2004-08-23 07:47:07 51°10.916 2°35.957 13.3 49 15.4 101260 86
2004-08-23 07:47:13 51°10.936 2°35.975 12.2 44 15.4 101260 86
2004-08-23 07:47:18 51°10.953 2°35.989 12.5 48 15.4 101260 86
2004-08-23 07:47:23 51°10.97 2°36.004 12.5 48 15.4 101260 86
2004-08-23 07:47:28 51°10.987 2°36.019 13.5 44 15.3 101250 85
2004-08-23 07:47:33 51°11.003 2°36.034 13.2 49 15.3 101250 85
2004-08-23 07:47:37 51°11.017 2°36.045 13.3 43 15.4 101260 86
2004-08-23 07:47:45 51°11.044 2°36.068 13.1 45 15.4 101260 86
2004-08-23 07:47:52 51°11.068 2°36.088 12.6 48 15.4 101260 86
2004-08-23 07:47:57 51°11.085 2°36.103 13.8 50 15.4 101260 86
2004-08-23 07:48:05 51°11.112 2°36.126 12.9 49 15.4 101250 85
2004-08-23 07:48:12 51°11.135 2°36.146 13.6 39 15.4 101250 85
2004-08-23 07:48:17 51°11.152 2°36.161 13.3 45 15.4 101260 85
2004-08-23 07:48:25 51°11.178 2°36.185 13.8 48 15.3 101250 85
2004-08-23 07:48:32 51°11.202 2°36.206 13.1 48 15.3 101250 85
2004-08-23 07:48:37 51°11.219 2°36.22 13.1 49 15.3 101270 85
2004-08-23 07:48:45 51°11.246 2°36.243 12.9 51 15.4 101260 85
2004-08-23 07:48:52 51°11.269 2°36.264 11.7 51 15.4 101260 85
2004-08-23 07:48:57 51°11.286 2°36.278 12.4 48 15.4 101260 85
2004-08-23 07:49:02 51°11.303 2°36.293 13 49 15.4 101260 85
2004-08-23 07:49:06 51°11.316 2°36.305 12.3 47 15.4 101270 85
2004-08-23 07:49:11 51°11.333 2°36.32 12.7 49 15.4 101270 85
2004-08-23 07:49:17 51°11.353 2°36.338 13.2 46 15.4 101260 85
2004-08-23 07:49:21 51°11.366 2°36.35 12.8 50 15.4 101260 85
2004-08-23 07:49:27 51°11.386 2°36.369 12.9 42 15.4 101270 85
2004-08-23 07:49:32 51°11.402 2°36.385 12.4 47 15.4 101270 85
2004-08-23 07:49:37 51°11.418 2°36.401 13.1 44 15.4 101260 85
2004-08-23 07:49:41 51°11.431 2°36.413 12.9 43 15.4 101260 85
2004-08-23 07:49:46 51°11.448 2°36.429 12.7 42 15.4 101260 85
2004-08-23 07:49:50 51°11.46 2°36.442 12.3 44 15.4 101260 85
2004-08-23 07:49:54 51°11.473 2°36.455 13.5 46 15.4 101260 85
2004-08-23 07:50:02 51°11.499 2°36.48 13.1 47 15.4 101260 85
2004-08-23 07:50:05 51°11.509 2°36.49 12.7 45 15.4 101270 84
2004-08-23 07:50:12 51°11.532 2°36.512 11.7 41 15.4 101270 84
2004-08-23 07:50:17 51°11.548 2°36.528 12.4 47 15.4 101260 85
2004-08-23 07:50:22 51°11.565 2°36.544 13.4 45 15.4 101260 85
2004-08-23 07:50:25 51°11.574 2°36.553 13.7 48 15.4 101260 85
2004-08-23 07:50:31 51°11.594 2°36.572 12.8 48 15.4 101260 85
2004-08-23 07:50:37 51°11.614 2°36.591 12.5 44 15.4 101270 85
2004-08-23 07:50:42 51°11.63 2°36.607 13 41 15.4 101270 85
2004-08-23 07:50:47 51°11.647 2°36.623 13.9 47 15.4 101260 85
2004-08-23 07:50:49 51°11.653 2°36.629 13.3 48 15.4 101260 85
2004-08-23 07:50:57 51°11.679 2°36.655 13.2 47 15.4 101250 84
2004-08-23 07:51:02 51°11.696 2°36.671 13.1 51 15.4 101250 84
2004-08-23 07:51:05 51°11.705 2°36.68 12.3 52 15.4 101260 85
2004-08-23 07:51:12 51°11.728 2°36.702 13.5 46 15.4 101260 85
2004-08-23 07:51:17 51°11.744 2°36.718 13.8 49 15.4 101260 84
2004-08-23 07:51:22 51°11.76 2°36.735 13.2 51 15.4 101260 84
2004-08-23 07:51:25 51°11.77 2°36.745 12.8 45 15.3 101260 84
2004-08-23 07:51:32 51°11.793 2°36.768 14.3 41 15.3 101260 84
2004-08-23 07:51:37 51°11.809 2°36.785 13.6 41 15.4 101270 84
2004-08-23 07:51:42 51°11.825 2°36.801 12.8 46 15.4 101270 84
2004-08-23 07:51:47 51°11.841 2°36.818 13 46 15.4 101260 85
2004-08-23 07:51:50 51°11.85 2°36.828 12.8 39 15.4 101260 85
2004-08-23 07:51:57 51°11.873 2°36.852 13 41 15.4 101270 84
2004-08-23 07:52:01 51°11.886 2°36.864 13 44 15.4 101270 84
2004-08-23 07:52:05 51°11.898 2°36.878 13.3 43 15.4 101260 84
2004-08-23 07:52:12 51°11.92 2°36.902 12.1 38 15.4 101260 84
2004-08-23 07:52:17 51°11.936 2°36.919 13.8 36 15.4 101270 84
2004-08-23 07:52:22 51°11.951 2°36.937 13.5 42 15.4 101270 84
2004-08-23 07:52:26 51°11.964 2°36.951 13.6 44 15.4 101270 84
2004-08-23 07:52:32 51°11.982 2°36.972 13.2 49 15.4 101270 84
2004-08-23 07:52:37 51°11.998 2°36.989 12.8 39 15.4 101270 84
2004-08-23 07:52:41 51°12.01 2°37.003 12.9 47 15.4 101270 84
2004-08-23 07:52:47 51°12.029 2°37.024 12.8 47 15.4 101270 84
2004-08-23 07:52:52 51°12.045 2°37.042 12.1 45 15.4 101270 84
2004-08-23 07:52:57 51°12.06 2°37.059 12.9 40 15.5 101270 84
2004-08-23 07:53:02 51°12.076 2°37.077 13.7 43 15.5 101270 84
2004-08-23 07:53:05 51°12.085 2°37.087 13 45 15.5 101270 84
2004-08-23 07:53:12 51°12.107 2°37.112 12.2 45 15.5 101270 84
2004-08-23 07:53:17 51°12.123 2°37.13 13.4 40 15.4 101270 84
2004-08-23 07:53:21 51°12.135 2°37.144 13 43 15.4 101270 84
2004-08-23 07:53:26 51°12.151 2°37.161 13 40 15.4 101280 84
2004-08-23 07:53:32 51°12.169 2°37.182 13.5 43 15.4 101280 84
2004-08-23 07:53:37 51°12.185 2°37.2 12.8 46 15.4 101280 84
2004-08-23 07:53:42 51°12.2 2°37.218 12 45 15.4 101280 84
2004-08-23 07:53:47 51°12.216 2°37.236 12.2 42 15.4 101260 83
2004-08-23 07:53:50 51°12.225 2°37.246 13.6 45 15.4 101260 83
2004-08-23 07:53:57 51°12.247 2°37.271 12.5 43 15.4 101270 83
2004-08-23 07:54:01 51°12.26 2°37.285 12.4 44 15.4 101270 83
2004-08-23 07:54:05 51°12.272 2°37.299 13.8 41 15.4 101260 83
2004-08-23 07:54:12 51°12.294 2°37.323 13.8 39 15.4 101260 83
2004-08-23 07:54:17 51°12.31 2°37.34 13.8 44 15.4 101270 84
2004-08-23 07:54:22 51°12.326 2°37.357 13.8 46 15.4 101270 84
2004-08-23 07:54:27 51°12.342 2°37.374 13.2 48 15.4 101260 84
2004-08-23 07:54:29 51°12.348 2°37.381 13.3 44 15.4 101260 84
2004-08-23 07:54:38 51°12.376 2°37.413 13.9 42 15.4 101270 84
2004-08-23 07:54:42 51°12.388 2°37.427 13.1 45 15.4 101270 84
2004-08-23 07:54:45 51°12.398 2°37.438 12.6 48 15.4 101260 83
2004-08-23 07:54:52 51°12.419 2°37.463 13.5 43 15.4 101260 83
2004-08-23 07:54:57 51°12.435 2°37.481 12.3 44 15.4 101270 84
2004-08-23 07:55:02 51°12.451 2°37.498 13 44 15.4 101270 84
2004-08-23 07:55:05 51°12.46 2°37.509 12.3 46 15.4 101270 83
2004-08-23 07:55:12 51°12.482 2°37.533 13.3 42 15.4 101270 83
2004-08-23 07:55:17 51°12.498 2°37.55 12.9 44 15.4 101280 83
2004-08-23 07:55:22 51°12.515 2°37.567 11.9 48 15.4 101280 83
2004-08-23 07:55:27 51°12.53 2°37.584 12.1 49 15.4 101270 83
2004-08-23 07:55:30 51°12.539 2°37.595 12.1 44 15.4 101270 83
2004-08-23 07:55:37 51°12.561 2°37.619 12 42 15.4 101280 83
2004-08-23 07:55:41 51°12.574 2°37.633 12.9 40 15.4 101280 83
2004-08-23 07:55:46 51°12.59 2°37.65 14 43 15.5 101280 83
2004-08-23 07:55:51 51°12.605 2°37.668 12.7 45 15.5 101280 83
2004-08-23 07:55:54 51°12.615 2°37.678 12.6 45 15.5 101280 84
2004-08-23 07:56:01 51°12.637 2°37.702 13.7 44 15.5 101280 84
2004-08-23 07:56:04 51°12.647 2°37.712 13.6 48 15.5 101280 84
2004-08-23 07:56:09 51°12.663 2°37.729 13 48 15.5 101280 84
2004-08-23 07:56:17 51°12.688 2°37.756 12.6 44 15.5 101270 83
2004-08-23 07:56:22 51°12.704 2°37.773 12.7 43 15.5 101270 83
2004-08-23 07:56:27 51°12.72 2°37.79 12.5 43 15.5 101270 83
2004-08-23 07:56:29 51°12.726 2°37.797 13.6 44 15.5 101270 83
2004-08-23 07:56:38 51°12.755 2°37.828 12.5 44 15.5 101270 83
2004-08-23 07:56:42 51°12.767 2°37.842 11.6 42 15.5 101270 83
2004-08-23 07:56:46 51°12.78 2°37.856 11.8 43 15.5 101280 83
2004-08-23 07:56:52 51°12.798 2°37.877 11.9 43 15.5 101280 83
2004-08-23 07:56:57 51°12.814 2°37.895 13 44 15.5 101270 83
2004-08-23 07:57:02 51°12.83 2°37.912 12.9 42 15.5 101270 83
2004-08-23 07:57:07 51°12.846 2°37.929 12.8 44 15.6 101270 83
2004-08-23 07:57:11 51°12.858 2°37.943 13 44 15.6 101270 83
2004-08-23 07:57:17 51°12.878 2°37.963 13 45 15.6 101280 83
2004-08-23 07:57:21 51°12.89 2°37.977 12.7 49 15.6 101280 83
2004-08-23 07:57:25 51°12.903 2°37.99 11.6 41 15.5 101270 83
2004-08-23 07:57:32 51°12.925 2°38.014 13.4 42 15.5 101270 83
2004-08-23 07:57:35 51°12.935 2°38.024 13.7 44 15.6 101270 83
2004-08-23 07:57:42 51°12.957 2°38.047 12.6 49 15.6 101270 83
2004-08-23 07:57:45 51°12.966 2°38.058 13.2 44 15.6 101280 83
2004-08-23 07:57:52 51°12.989 2°38.082 13.3 44 15.6 101280 83
2004-08-23 07:57:57 51°13.004 2°38.098 13.5 46 15.6 101280 84
2004-08-23 07:58:02 51°13.02 2°38.115 12.6 49 15.6 101280 84